AirNav   Everest Fuels
 
 521 users online  

KNGU Norfolk Naval Station (Chambers Field)
Norfolk, Virginia, USA

GOING TO NORFOLK?


FAA INFORMATION EFFECTIVE 19 MAY 2022

Location

FAA Identifier: NGU
Lat/Long: 36-56-14.8870N 076-17-21.4010W
36-56.248117N 076-17.356683W
36.9374686,-76.2892781
(estimated)
Elevation: 14.8 ft. / 4.5 m (surveyed)
Variation: 10W (1990)
Time zone: UTC -4 (UTC -5 during Standard Time)
Zip code: 23503

Airport Operations

Airport use: Private use. Permission required prior to landing
Activation date: 04/1943
Control tower: yes
ARTCC: WASHINGTON CENTER
FSS: LEESBURG FLIGHT SERVICE STATION
NOTAMs facility: NGU (NOTAM-D service available)
Attendance: CONTINUOUS
CLSD 0400Z FOURTH THU NOV - 1200Z FOURTH FRI NOV, CLSD 1900Z 24 DEC - 1200Z 26 DEC, CLSD 1900Z 31 DEC - 1200Z 2 JAN.
Segmented circle: no
Lights: AVBL ONLY DURING HRS OF OPERATION.
Beacon: white-white-green (lighted military airport)
Operates sunset to sunrise.

Airport Communications

ATIS: 118.425 342.0
CHAMBERS GROUND: 121.8 298.95 ;NAVY NORFOLK HELIN 370.85
CHAMBERS TOWER: 124.3 126.375 ;NAVY NORFOLK HELIN 290.5 ;NAVY NORFOLK HELIN 379.15
NORFOLK APPROACH: 118.9 ;010-310
CLEARANCE DELIVERY: 120.7 339.8
AMC/ATOC: 130.65 349.5
BASE OPS: 134.1 268.8
EMERG: 121.5 243.0
PMSV METRO: 271.6
RADAR: 119.2 134.1 263.6 302.0 309.2 346.8
WX ASOS at ORF (5 nm SE): PHONE 757-460-9348
WX AWOS-3PT at PVG (12 nm SW): 118.375 (757-465-2175)
WX ASOS at NTU (14 nm SE): PHONE DSN 433-3619 or 757-433-3619
WX ASOS at PHF (15 nm NW): PHONE 757-874-3682
WX AWOS-3 at CPK (16 nm S): 123.675 (757-204-4290)
  • NOTIFY CHAMBERS OPNS ON FREQ 268.8 ON ALL VIP FLIGHTS 15 MIN PRIOR TO ARRIVAL.
  • ALL RADAR FREQUENCIES ARE ON REQUEST.

Nearby radio navigation aids

VOR radial/distance  VOR name  Freq  Var
ORFr310/5.1NORFOLK VORTAC116.9007W
CCVr220/28.3CAPE CHARLES VORTAC112.2010W
HCMr154/36.7HARCUM VORTAC108.8007W
FKNr078/37.2FRANKLIN VORTAC110.6009W

 
NDB name  Hdg/Dist  Freq  Var  ID
INGLE352/6.132909WOR --- .-.
WAKEFIELD106/34.227411WAKQ .- -.- --.-

Airport Services

Bottled oxygen: NONE
Bulk oxygen: HIGH/LOW

Runway Information

Runway 10/28

Dimensions: 8370 x 200 ft. / 2551 x 61 m
Surface: asphalt/grooved
Weight bearing capacity: 
PCN 56 /R/B/W/T
Runway edge lights: high intensity
RUNWAY 10  RUNWAY 28
Latitude: 36-56.247967N36-56.248162N
Longitude: 076-18.215905W076-16.497447W
Elevation: 13.2 ft.12.5 ft.
Traffic pattern: leftright
Runway heading: 100 magnetic, 090 true280 magnetic, 270 true
Displaced threshold: 299 ft.995 ft.
Declared distances: TORA:8370 LDA:8071TORA:8370 LDA:7375
Markings: precision, in good conditionprecision, in good condition
Visual slope indicator: 4-light PAPI on right (3.00 degrees glide path)4-light PAPI on right (3.00 degrees glide path)
Approach lights: ALSF2: standard 2,400 foot high intensity approach lighting system with centerline sequenced flashers (category II or III)
OLS RWY 10.
SSALF: simplified short approach lighting system with sequenced flashers
OLS RWY 28.
Runway end identifier lights: yesyes
Centerline lights: yesyes
Touchdown point: yes, lightedyes, lighted
Instrument approach: ILS/DME

Airport Ownership and Management from official FAA records

Ownership: U.S. Navy
Owner: U.S. NAVY
OCEANOGRAPHIC OFC-CODE 3142
WASHINGTON, DC 20373
Manager: COMMANDING OFFICER
NAVAL AIR STATION
NORFOLK, VA 23511

Additional Remarks

E60-28 HOOK E28 (B) (1062 FT).
E60-10 HOOK E28(B) (1500 FT).
AOE.
CAUTION: EXTV FISH SPOTTER ACFT ACT (SENG GENERAL AVIATION ACFT) UPWARDS FR 1500 FT OVER CHESAPEAKE BAY AND ADJ COASTAL WATERS. EXTV VFR TFC OPR W OF CHAMBERS CLASS D AND NORFOLK CLASS C AIRSPACE. BIRD HAZ.
TFC PAT: R TFC RWY 28. BASIC F/W/VFR MIN 1000 FT AND 3 NM.
NS ABTMT: NO PRACTICE APCH 0400-1200Z++ MON-SAT; 0400-1800Z++ SUN. OT BY NOTAM. NO COPTER OVFT WILLOUGHBY SPIT EXC VIA PT XRAY (CHAMBERS TACAN R-042/1.5 DME) OR PT YANKEE (CHAMBERS TACAN R-009/1.8 DME) AT 500 FT.
CSTMS/AG/IMG: CSTMS AVBL WITH 2 HR PN. AG AVBL 1300-2400Z++ MON-FRI. IMG AVBL 1300-2100Z++ MON-FRI. AG/IMG AVBL OT ON OVERTIME BASIS ONLY, PRIOR ARNG RQR.
MISC: RWY 10/28 GROOVED.
CAUTION: ARR/DEP TCAS EQUIPPED ACFT SHOULD EXPECT NUMEROUS TCAS ALERTS FROM SHIP TRANSPONDER HARBORED OR TRANSITING INTO/OUT OF THE CHESAPEAKE AND COASTAL WATERS.
ARR/DEP TCAS EQUIPED ACFT SHOULD EXPECT NUMEROUS TCAS ALERTS FROM SHIP TRANSPONDER OR TRANSMITTING INTO/OUT OF THE CHESAPEAKE AND COASTAL WATERS.
CAUTION - DO NOT MISTAKE NORFOLK INTL 5 NM SE FOR CHAMBERS FIELD, WHILE INBD ON TACAN/RNAV RWY 28 APCHS. CHAMBERS FIELD HAS A SINGLE RWY; NORFOLK INTL HAS INTERSECTING RWYS.
RSTD - PPR FOR NON CHAMBERS FIELD BASED ACFT. DSN 262-3419/3429 C757-322-3419/3429.
AMC/ATOC DSN 564-4735/3922, C757-444-4735/3922. ACFT UTILIZING AMC TRML CTC ATOC/AMC TRML 15 MIN PRIOR ARR WITH LOAD RPT. ACFT OVERSEAS CTC AMC/ATOC VIA FONE PATCH 2 HR PRIOR ARR FOR CSTM. ALL OTHER ACFT, CTC BASE OPS 15 MIN PRIR ARR.
MISC- FLT PLANS FOR NS NORFOLK, CHAMBERS FLD, AND NAS OCEANA SHOULD BE FAXED TO DSN 565-9680, C757-445-9680, OR EMAILED TO KNGU.FLTPLNG.FCT@NAVY.MIL. TO CFM RECEIPT OF FLT PLANS CALL NS NORFOLK, CHAMBERS FLD FLT PLANNING SUPERVISOR AT DSN 262-3419/3429, C757-322-3419/3429.
CAUTION - RWY 28 MULTIPLE CRANES 1.2 NM TO 1.3 NM FM DER 1600 FT L TO 4000 FT R OF CNTRLN, 260 FT MSL.
FOR CIVIL ACFT LNDG PERMIT (CALP) INFO CTC AFLD MGR C757-322-3419/3429.
A-GEAR: AVOID CNTRLN LGT RWY 10/28 DUR CABLE ENGAGEMENT TO PREVENT TAILHOOK SKIP. DIST RWY 28 MEASURED FR DISPL THR. E-28(B) IN RAISED POSN AT DEP END OF RWY NMLLY. SHORTFLD GEAR AVBL WITH 20 MIN PN.
JASU:(NC-10C) (NC-8A/A1) (NCPP-105 CTC AIR OPS DUTY OFFICER TO ENSURE AVBL.)
FUEL: NO TRAN COPTER HOT PIT WO PRIOR COORD WITH HOST SQUADRON. J5.
FLUID: ADI SP PRESAIR LHOX LOX.
OIL: UNAVBL.
TRAN ALERT: LTD TRAN MAINT AVBL WKEND ONLY 1200-2000Z++. TRAN MAINT UNAVBL OT. 2 HR PN RQR FOR LOX. LAVATORY SVC UNAVBL FOR C-130 ACFT. POTABLE WATER UNAVBL. NO TRAN WORK/MSN PLANNING/BRIEFING SPACES OR COMSEC STOR FOR DETS.
RSTD: TWY B CLSD S OF TWY F AND TWY D CLSD E OF TWY S UFN.

Instrument Procedures

NOTE: All procedures below are presented as PDF files. If you need a reader for these files, you should download the free Adobe Reader.

NOT FOR NAVIGATION. Please procure official charts for flight.
FAA instrument procedures published for use from 19 May 2022 at 0901Z to 16 June 2022 at 0900Z.

 
STARs - Standard Terminal Arrivals
DRONE TWO   2 pages: [1] [2] (292KB)
TERKS TWO   download (184KB)
 
IAPs - Instrument Approach Procedures
ILS OR LOC/DME RWY 10   download (258KB)
RNAV (GPS) RWY 10   download (156KB)
RNAV (GPS) RWY 28   download (155KB)
HI-TACAN RWY 10   download (146KB)
HI-TACAN RWY 28   download (151KB)
TACAN RWY 10   download (195KB)
TACAN RWY 28   download (147KB)
Radar Approach Procedures available   download (181KB)
 
CHAMBERS ONE (OBSTACLE)   2 pages: [1] [2] (244KB)
NOTE: Special Take-Off Minimums/Departure Procedures apply   download (379KB)

Other nearby airports with instrument procedures:

KNHU - Norfolk Naval Station Airport (1 nm NW)
KORF - Norfolk International Airport (5 nm SE)
KLFI - Langley Air Force Base (9 nm N)
KPVG - Hampton Roads Executive Airport (12 nm SW)
KNTU - Oceana Naval Air Station (Apollo Soucek Field) (14 nm SE)
KPHF - Newport News/Williamsburg International Airport (15 nm NW)
KCPK - Chesapeake Regional Airport (16 nm S)
KFAF - Felker Army Airfield (19 nm NW)
 
Loc | Ops | Rwys | IFR | FBO | Links
Com | Nav | Svcs | Stats | Notes
Area around KNGU (Norfolk Naval Station (Chambers Field))
 
Road maps at: MapQuest Bing Google
 
Aerial photo
WARNING: Photo may not be current or correct
Aerial photo of KNGU (Norfolk Naval Station (Chambers Field))
Photo by David Newcomer
Photo taken 10-Sep-2019
looking southeast from 5,000'.

Do you have a better or more recent aerial photo of Norfolk Naval Station (Chambers Field) that you would like to share? If so, please send us your photo.

 
Sectional chart

 
Airport diagram
Diagram of KNGU (Norfolk Naval Station (Chambers Field))
Download PDF
of official airport diagram from the FAA

 
Airport distance calculator
Flying to Norfolk Naval Station (Chambers Field)? Find the distance to fly.

From to KNGU

Sunrise and sunset
Times for 23-May-2022
 Local
(UTC-4)
 Zulu
(UTC)
Morning civil twilight05:2309:23
Sunrise05:5309:53
Sunset20:1100:11
Evening civil twilight20:4100:41

Current date and time
Zulu (UTC)  23-May-2022 09:41:55
Local (UTC-4)  23-May-2022 05:41:55
 
METAR
KNGU 
2nm SE 
230859Z 31005KT 10SM FEW110 BKN220 BKN300 23/20 A3011 RMK AO2 SLP194 T02330206 56000 $
KORF 
5nm SE 
230851Z 34003KT 10SM CLR 23/19 A3009 RMK AO2 SLP189 T02280189 55002
KLFI 
9nm NW 
230856Z AUTO 32003KT 10SM FEW210 21/21 A3009 RMK AO2 SLP196 T02140212 55000 $
KPVG 
12nm SW 
230856Z AUTO 00000KT 8SM CLR 18/18 A3011 RMK AO2 SLP197 6//// T01780178 56002 PNO $
KNTU 
15nm SE 
230856Z 32005KT 10SM BKN200 23/19 A3009 RMK AO2 SLP190 T02280194 55000 $
KPHF 
15nm NW 
230854Z AUTO 00000KT 10SM CLR 19/18 A3010 RMK AO2 SLP192 T01890183 50000
KCPK 
16nm S 
230915Z AUTO 00000KT 10SM CLR 20/19 A3010 RMK AO2 T01950185
KNFE 
16nm SE 
230856Z AUTO 00000KT 10SM CLR 22/19 A3009 RMK AO2 SLP191 T02220194 56004 $
KFAF 
19nm NW 
230856Z AUTO 33003KT 10SM FEW230 23/19 A3008 RMK AO2 SLP189 T02250187 53002 $
TAF
KNGU 
2nm SE 
2223/2323 22010KT 9999 FEW050 SCT100 QNH3001INS BECMG 2301/2303 23010KT 9999 VCTS FEW050CB SCT120 QNH3005INS FM230600 23008KT 9999 FEW030 SCT050 QNH3008INS BECMG 2310/2312 35013KT 9999 BKN020 OVC050 QNH3013INS BECMG 2317/2319 03010KT 9999 VCSH BKN060 OVC090 QNH3014INS T29/2300Z T19/2321Z FN00247
KORF 
5nm SE 
230558Z 2306/2406 27006KT P6SM SCT070 FM230800 30007KT P6SM BKN070 FM231100 36011KT P6SM BKN025 FM231800 04010KT P6SM OVC040 FM240300 09005KT P6SM -SHRA OVC040
KLFI 
9nm NW 
230100Z 2301/2407 22009KT 9999 FEW040 BKN300 QNH3003INS TEMPO 2302/2304 VRB25G35KT 6000 -TSRA BKN020CB BECMG 2305/2306 27009KT 9000 BR FEW010 SCT020 BKN030 QNH3005INS BECMG 2310/2311 36009KT 9000 BR SCT010 BKN020 QNH3007INS BECMG 2313/2314 01015G20KT 9999 NSW BKN015 OVC020 QNH3009INS BECMG 2321/2322 07015KT 9999 FEW020 BKN030 OVC040 QNH3012INS BECMG 2404/2405 06012KT 9000 -SHRA FEW005 BKN015 OVC020 QNH3010INS BECMG 2405/2406 08012KT 8000 SHRA OVC005 QNH3008INS TX27/2303Z TN19/2316Z
KNTU 
15nm SE 
2223/2323 22010KT 9999 FEW050 QNH3002INS BECMG 2301/2303 23010KT 9999 VCTS FEW050CB SCT120 QNH3008INS FM230600 23008KT 9999 FEW030 SCT050 QNH3008INS BECMG 2310/2312 35013KT 9999 BKN020 OVC050 QNH3016INS BECMG 2317/2319 03013KT 9999 VCSH BKN015 OVC060 QNH3016INS T28/2300Z T18/2321Z FN00247
KPHF 
15nm NW 
230558Z 2306/2406 34005KT P6SM BKN070 FM230900 34006KT P6SM BKN050 FM231200 01009KT P6SM BKN025 FM231800 04008KT P6SM OVC040 FM240200 07003KT P6SM -SHRA OVC040
NOTAMs
Click for the latest NOTAMs
NOTAMs are issued by the DoD/FAA and will open in a separate window not controlled by AirNav.

 

 
 

Would you like to see your business listed on this page?

 If your business provides an interesting product or service to pilots, flight crews, aircraft, or users of the Norfolk Naval Station (Chambers Field), you should consider listing it here.  To start the listing process, click on the button below
 
Add a business
 

Other Pages about Norfolk Naval Station (Chambers Field)

Update a link
 
Copyright © AirNav, LLC. All rights reserved. Privacy Policy  Contact